Kezdőlap
METAR-TAF:

METAR-TAF

Repülőterek :

Faribault Municipal Airport

Faribault, Minnesota, Amerikai Egyesült Államok

földrajzi szélesség: 44-20N, földrajzi hosszúság: 093-19W, magasság: 322 m

Jelenlegi meteorológiai megfigyelések

A jelentés 15 perccel ezelõtt készült, 02:55 UTC
Déli szél 14 kt széllökések: 20 kt
Hőmérséklet -4°C
Páratartalom 74%
Légköri nyomás 1011 hPa
Látótávolság: 16.1 km
Derült ég

METAR: KFBL 270255Z AUTO 19014G20KT 10SM CLR M04/M08 A2986 RMK AO2

Idő: 21:10 (03:10 UTC)


TAF: hiányzik

Meteorológiai megfigyelések és előrejelzések több, mint 4000 repülőtéren (METAR és TAF jelentéseket).

A térképen piros és sárga pontok jelzik az elérhető meteorológiai állomásokat.

Mozgassa az egeret a pont fölött, hogy megjelenjen az állomás neve.

Azután kattintson az időjárási megfigyelések és előrejelzések megtekintéséhez.

A térkép megváltoztatása: kattintson a fekete keresztel jelölt zöld gombra ráközelítéshez, a vonallal jelölt zöld gombra távolításhoz, vagy a zöld nyilakra a szomszédos térképek eléréséhez.


METAR-TAF: